Location: Kennet
(52.2833°N, 0.5000°E)
Time: 20:07:55
(UTC+00:00)

Daily predictions for brighter satellites

Satellite Brightness Start Highest point End
(mag) Time Altitude Azimuth Time Altitude Azimuth Time Altitude Azimuth
Cosmos 2016 Rocket 4.1 16:26:31 10° S 16:32:44 62° E 16:39:01 10° NNE
Tsikada Rocket 4.1 16:27:49 10° N 16:34:13 62° ENE 16:40:30 10° SSE
CBERS-1 4.0 16:30:11 10° SSE 16:35:17 77° ENE 16:40:25 10° NNW
Cosmos 1606 3.0 16:33:31 10° SSW 16:36:04 43° WNW 16:38:39 10° N
Cosmos 2084 Rocket 3.5 16:35:14 10° SW 16:39:23 69° SE 16:43:34 10° NE
SMAP 3.3 16:38:37 10° SE 16:43:05 49° ENE 16:47:36 10° N
Cosmos 540 Rocket 3.7 16:38:12 10° NNW 16:43:13 49° ENE 16:48:10 10° SE
Cosmos 2297 Rocket 4.3 16:44:45 10° NNW 16:46:43 12° N 16:48:40 10° NNE
SWARM A 4.2 16:44:42 10° N 16:48:02 88° ENE 16:51:21 10° S
Cosmos 1869 4.2 16:45:35 10° SE 16:48:21 22° E 16:51:08 10° NE
YAOGAN 1 4.1 16:47:19 10° E 16:49:56 16° ENE 16:52:35 10° NNE
IGS 5A 3.3 16:46:10 10° SSE 16:50:08 78° ENE 16:54:08 10° N
Cosmos 1763 Rocket 3.5 16:46:30 10° NNW 16:51:43 64° ENE 16:56:50 10° SE
SL-16 R/B 2.6 16:45:58 10° NNE 16:52:16 77° ESE 16:58:31 10° SSW
SAR-Lupe-5 4.4 16:51:45 10° NNE 16:54:19 52° ESE 16:56:55 10° S
Landsat 7 4.0 16:50:48 10° SE 16:55:15 47° ENE 16:59:44 10° N
Cosmos 1340 Rocket 4.4 16:52:52 10° SW 16:56:24 34° WNW 16:59:56 10° N
Timation 1 Rocket 4.3 16:51:18 10° NNW 16:57:18 72° NE 17:03:15 10° SE
RESURS DK-1 2.2 16:53:25 10° NNW 16:57:26 71° NE 17:01:26 10° SE
Cosmos 1140 Rocket 3.5 16:54:50 10° SSW 16:59:57 67° ESE 17:05:05 10° NNE
CZ-4C R/B 2.9 16:56:12 10° W 17:00:44 44° NNW 17:06:36 10° NE
Aureole 3 Rocket 3.8 16:59:13 10° SE 17:01:25 18° E 17:03:44 10° NE
UNK 3.9 17:00:40 10° NNE 17:05:14 55° E 17:09:44 10° S
Meteor 1-28 Rocket 2.9 17:02:02 10° NNE 17:05:26 89° ESE 17:08:48 10° SSW
Meteor 2-12 Rocket 4.4 17:02:09 10° N 17:08:14 64° ENE 17:14:15 10° SSE
Cosmos 1536 Rocket 4.4 17:06:58 10° N 17:10:51 29° ENE 17:14:42 10° SE
Cosmos 1400 Rocket 4.3 17:08:42 10° ESE 17:10:53 15° E 17:11:08 15° E
SJ-12 3.7 17:07:49 10° SSE 17:11:33 60° ENE 17:15:18 10° N
Okean 2 Rocket 4.3 17:15:08 10° SE 17:18:18 20° E 17:20:03 16° NE
Cosmos 1269 Rocket 4.1 17:14:19 10° SSW 17:19:34 80° WNW 17:24:54 10° NNE
CORIOLIS 4.3 17:15:54 10° SSE 17:21:15 78° WSW 17:26:38 10° NNW
IRS-1C 4.1 17:17:24 10° SSE 17:22:44 88° ENE 17:28:06 10° NNW
ATLAS CENTAUR R/B 2.9 17:22:17 10° W 17:24:59 21° NNW 17:27:35 10° NNE
SL-12 R/B(2) 4.5 17:18:49 10° SSW 17:26:39 60° ESE 17:35:47 12° NE
COSMO-SKYMED 1 3.8 17:26:49 19° E 17:27:02 19° E 17:30:02 10° SE
Resurs 01 Rocket 3.2 17:30:11 17° NE 17:30:11 17° NE 17:32:36 10° NNE
Thor Agena Rocket 4.5 17:24:52 10° S 17:30:01 53° W 17:35:11 10° NNW
Cosmos 1943 Rocket 2.3 17:24:56 10° S 17:30:23 55° ESE 17:35:17 13° NE
Cosmos 1782 Rocket 4.1 17:27:09 10° SSW 17:31:31 60° WNW 17:35:56 10° N
Timation 2 Rocket 4.2 17:24:58 10° SSW 17:31:44 63° ESE 17:38:23 10° NE
Cosmos 841 Rocket 3.8 17:27:22 10° NNW 17:32:25 43° NE 17:37:24 10° SE
Cosmos 2058 2.8 17:29:04 10° N 17:33:00 56° ENE 17:36:55 10° SSE
Cosmos 2233 Rocket 4.3 17:27:10 10° SSW 17:33:27 72° WNW 17:39:49 10° N
Cosmos 1300 Rocket 4.4 17:29:42 10° SSW 17:33:59 51° WNW 17:38:16 10° N
Cosmos 2251 Rocket 3.9 17:29:37 10° S 17:34:34 42° ESE 17:38:36 15° NE
Cosmos 2227 Rocket 4.4 17:33:33 10° NNW 17:35:22 11° N 17:37:12 10° NNE
BREEZE-M DEB (TANK) 3.1 17:34:43 10° SW 17:37:10 38° SSE 17:39:49 21° E
Cosmos 2082 Rocket 2.1 17:31:57 10° NNW 17:37:37 82° ENE 17:43:15 10° SSE
ATLAS 2AS CENTAUR R/B 3.1 17:31:35 10° NW 17:38:04 43° NNE 17:42:14 21° E
Cosmos 1346 Rocket 3.9 17:36:22 10° N 17:38:39 23° NE 17:38:39 23° NE
Cosmos 2061 Rocket 4.3 17:34:54 10° SSW 17:41:10 71° WNW 17:47:25 10° N
Cosmos 2278 Rocket 2.2 17:38:16 10° SSW 17:43:52 66° ESE 17:48:32 15° NE
Cosmos 1602 2.9 17:41:15 10° N 17:44:19 79° ENE 17:47:22 10° SSE
IRAS Rocket 4.3 17:38:56 10° SE 17:44:21 57° ENE 17:49:45 10° NNW
MOS 1 Rocket 3.0 17:42:04 10° SSE 17:46:24 82° ENE 17:51:01 10° NNW
Cosmos 1975 Rocket 4.4 17:42:41 10° NNW 17:46:48 42° W 17:50:56 10° SSW
Cosmos 468 Rocket 4.0 17:41:36 10° NNW 17:46:51 87° WSW 17:52:01 10° SSE
AQUARIUS 4.4 17:45:18 10° S 17:49:42 72° WSW 17:54:08 10° NNW
Cosmos 1464 Rocket 4.1 17:44:43 10° SSE 17:50:48 54° E 17:56:50 10° NNE
ARIANE 5 R/B 3.2 17:46:35 10° S 17:51:27 55° WSW 17:56:24 10° NNW
CZ-2D R/B 3.4 17:48:04 10° SSE 17:52:12 66° ENE 17:56:24 10° N
Cosmos 1862 2.9 17:51:50 10° N 17:55:27 71° ENE 17:59:04 10° SSE
USA 215 4.2 17:49:44 10° SSE 17:56:00 47° SW 18:02:17 10° WNW
PSLV R/B 3.4 17:54:03 10° SSE 17:58:00 54° ENE 18:01:56 10° N
ARIANE 6 FM1 Upper Stage 4.3 17:55:50 10° NW 17:58:51 20° N 17:59:56 18° NNE
Geosat FO 4.4 17:57:42 14° SSE 18:00:02 62° WSW 18:02:54 10° NW
Cosmos 2151 Rocket 3.6 17:56:52 10° S 18:01:17 59° E 18:05:04 14° NNE
Cosmos 2263 Rocket 4.4 17:59:35 10° NNW 18:01:24 11° N 18:03:13 10° NNE
Cosmos 1190 Rocket 4.0 17:57:06 10° S 18:02:17 58° ESE 18:05:26 24° NE
ISS -3.6 18:00:14 10° WSW 18:03:31 55° SSE 18:03:52 51° SE
Cosmos 2034 Rocket 4.2 17:58:53 10° SSE 18:04:47 47° E 18:10:46 10° NNE
Cosmos 1812 2.2 18:02:34 10° SSW 18:05:27 66° WNW 18:06:21 38° N
Cosmos 676 Rocket 4.4 18:00:33 10° S 18:05:28 40° ESE 18:06:43 35° ENE
SKYMED 2 3.5 18:03:51 19° NNE 18:06:51 62° ESE 18:11:09 10° S
Okean 1 Rocket 3.3 18:03:47 10° SSE 18:07:59 45° E 18:08:25 44° ENE
Cosmos 1656 Rocket 4.4 18:03:20 10° SSE 18:08:00 31° ESE 18:08:00 31° ESE
Cosmos 220 Rocket 4.0 18:07:10 10° NNW 18:11:12 50° ENE 18:11:16 50° ENE
Cosmos 407 Rocket 3.8 18:07:34 10° SW 18:12:42 64° WNW 18:17:08 14° NNE
COSMOS 2406 3.1 18:07:35 10° NNW 18:13:18 85° ENE 18:19:01 10° SSE
Sich 1 Rocket 3.7 18:09:18 10° S 18:13:43 53° E 18:14:56 40° NE
USA 281 3.6 18:11:29 31° E 18:13:55 43° NE 18:20:03 10° NNW
Cosmos 1954 Rocket 4.0 18:09:32 10° S 18:14:42 60° ESE 18:16:53 33° NE
Cosmos 1092 Rocket 4.1 18:09:13 10° N 18:15:21 51° ENE 18:21:22 10° SSE
SL-19 R/B 4.0 18:14:21 10° SSE 18:19:32 88° ENE 18:24:50 10° NNW
Cosmos 2026 Rocket 3.9 18:14:22 10° N 18:20:25 61° ENE 18:26:29 10° SSE
SJ 16-02 1.1 18:19:36 10° SSW 18:23:54 73° ESE 18:24:29 62° NE
Cosmos 1072 Rocket 4.4 18:18:21 10° S 18:24:30 86° W 18:30:40 10° N
Cosmos 44 Rocket 3.3 18:19:44 10° SW 18:24:33 83° NW 18:26:13 42° NE
YAOGAN 1 2.5 18:21:00 10° SSE 18:25:16 80° WSW 18:29:33 10° NNW
SPOT 1/Viking Rocket 4.0 18:21:56 10° S 18:27:03 64° WSW 18:32:15 10° NNW
Cosmos 2344 3.8 18:23:25 10° NW 18:31:10 85° NE 18:38:34 21° SE
Cosmos 1892 Rocket 4.4 18:28:35 10° N 18:31:19 35° NNE 18:31:19 35° NNE
Cosmos 2297 Rocket 4.1 18:30:09 10° NNW 18:33:09 15° NNE 18:33:09 15° NNE
SL-16 R/B 4.4 18:30:09 10° N 18:35:18 28° NW 18:40:25 10° WSW
Meteor 2-3 Rocket 3.6 18:30:38 10° NNW 18:36:22 86° ENE 18:42:01 10° SSE
Resurs 1-3 4.0 18:35:33 10° S 18:39:48 62° WSW 18:44:06 10° NNW
Nadezhda 4 Rocket 4.5 18:36:33 10° NNW 18:42:44 60° W 18:48:49 10° S
Cosmos 1400 Rocket 3.2 18:42:10 10° SSW 18:45:47 57° W 18:45:47 57° W
Cosmos 304 Rocket 3.6 18:43:59 10° SSW 18:48:43 88° WNW 18:48:47 87° NNW
CZ-4C R/B 3.6 18:45:40 10° WNW 18:50:26 29° N 18:51:49 27° NNE
Cosmos 371 Rocket 3.1 18:45:45 10° SSW 18:50:34 89° WNW 18:50:35 89° NW
Cosmos 1627 Rocket 4.4 18:47:02 10° N 18:53:12 86° W 18:59:22 10° S
Okean 2 Rocket 3.7 18:51:34 10° SSW 18:55:52 54° WNW 18:57:21 36° NNW
COSMO-SKYMED 1 3.2 19:03:11 50° W 19:03:11 50° W 19:06:41 10° SSW
Resurs 01 Rocket 3.0 19:07:36 31° NNW 19:07:36 31° NNW 19:09:59 10° NNW
Geosat 4.4 19:05:27 49° SSW 19:06:28 60° WSW 19:11:26 10° NW
BREEZE-M DEB (TANK) 3.9 19:08:27 10° WSW 19:11:47 66° S 19:11:47 66° S
Cosmos 1943 Rocket 3.5 19:09:15 10° WSW 19:14:23 35° NW 19:16:48 25° N
Cosmos 2227 Rocket 4.4 19:18:45 10° NNW 19:20:29 14° N 19:20:29 14° N
Cosmos 2278 Rocket 3.7 19:23:19 10° WSW 19:28:21 32° NW 19:30:23 25° N
ATLAS 2AS CENTAUR R/B 2.6 19:22:42 10° NW 19:29:29 77° SW 19:29:41 76° SSW
Cosmos 1634 Rocket 4.5 19:30:11 10° SSW 19:42:28 11° N 19:42:42 10° N
Cosmos 2369 Rocket 4.4 19:31:19 10° SSW 19:31:59 14° SSW 19:31:59 14° SSW
USA 281 3.6 19:58:22 56° WSW 19:58:22 56° WSW 20:04:47 10° NNW
SJ 16-02 4.1 19:59:25 10° W 20:01:03 16° WNW 20:01:03 16° WNW
CZ-4C R/B 4.3 20:34:26 10° NW 20:36:46 23° NNW 20:36:46 23° NNW
